LXJ651 KOWB-KBKL

Flight info

Callsign LXJ651
Flight time 1h 0m
Altitude 41000
Route APALO HEVAN DRUGA ROKNN4
Aircraft GLF6/M-SBDE2E3FGHIJ4J5M1RWXY/LB1D1

Departure

Time 2026-05-09 01:58
Airport Owensboro Daviess County Airport (KOWB)

Arrival

Time 2026-05-09 02:58
Airport Burke Lakefront Airport (KBKL)
Time Latitude Longitude Altitude Speed Heading
2026-05-09 01:44 37.73731 -87.16409 406 ft 0 kts 87°
2026-05-09 01:54 37.73749 -87.16395 403 ft 6 kts
2026-05-09 01:54 37.73783 -87.16459 406 ft 11 kts 267°
2026-05-09 01:54 37.73811 -87.16541 406 ft 12 kts 351°
2026-05-09 01:54 37.73922 -87.16548 406 ft 21 kts 357°
2026-05-09 01:55 37.74018 -87.16505 407 ft 16 kts 52°
2026-05-09 01:55 37.74106 -87.16362 407 ft 22 kts 52°
2026-05-09 01:55 37.74201 -87.16210 406 ft 22 kts 52°
2026-05-09 01:55 37.74297 -87.16053 405 ft 23 kts 52°
2026-05-09 01:56 37.74363 -87.15945 406 ft 6 kts 52°
2026-05-09 01:56 37.74373 -87.15929 404 ft 1 kts 52°
2026-05-09 01:56 37.74384 -87.15914 403 ft 7 kts 38°
2026-05-09 01:56 37.74437 -87.15940 406 ft 8 kts 313°
2026-05-09 01:57 37.74423 -87.15987 406 ft 0 kts 234°
2026-05-09 01:57 37.74303 -87.16180 405 ft 74 kts 231°
2026-05-09 01:57 37.73799 -87.16983 507 ft 149 kts 231°
2026-05-09 01:58 37.73167 -87.18211 1370 ft 186 kts 245°
2026-05-09 01:58 37.73004 -87.19874 1904 ft 195 kts 277°
2026-05-09 01:58 37.73704 -87.21295 2409 ft 202 kts 317°
2026-05-09 01:58 37.75060 -87.21895 3138 ft 217 kts 351°
2026-05-09 01:59 37.76549 -87.21959 3940 ft 214 kts 355°
2026-05-09 01:59 37.78086 -87.22026 4964 ft 236 kts 355°
2026-05-09 01:59 37.79864 -87.22082 6002 ft 275 kts 356°
2026-05-09 01:59 37.81748 -87.21591 6965 ft 279 kts 23°
2026-05-09 02:00 37.83258 -87.19992 7936 ft 292 kts 52°
2026-05-09 02:00 37.84382 -87.17822 8960 ft 303 kts 56°
2026-05-09 02:00 37.85525 -87.15614 9971 ft 303 kts 55°
2026-05-09 02:00 37.86692 -87.13326 10936 ft 317 kts 56°
2026-05-09 02:01 37.87930 -87.10868 11937 ft 347 kts 56°
2026-05-09 02:01 37.89296 -87.08179 12988 ft 380 kts 55°
2026-05-09 02:01 37.90767 -87.05303 14023 ft 390 kts 55°
2026-05-09 02:01 37.92244 -87.02398 14976 ft 398 kts 55°
2026-05-09 02:02 37.93758 -86.99414 15961 ft 404 kts 55°
2026-05-09 02:02 37.95271 -86.96435 16837 ft 413 kts 54°
2026-05-09 02:02 37.96837 -86.93354 17876 ft 418 kts 54°
2026-05-09 02:02 37.98422 -86.90228 18831 ft 425 kts 54°
2026-05-09 02:03 38.00041 -86.87065 19702 ft 430 kts 52°
2026-05-09 02:03 38.01997 -86.84192 20539 ft 432 kts 40°
2026-05-09 02:03 38.04163 -86.81517 21421 ft 438 kts 40°
2026-05-09 02:03 38.06340 -86.78771 22286 ft 445 kts 41°
2026-05-09 02:04 38.08553 -86.75977 23148 ft 452 kts 40°
2026-05-09 02:04 38.10811 -86.73162 23900 ft 459 kts 40°
2026-05-09 02:04 38.13072 -86.70343 24599 ft 465 kts 40°
2026-05-09 02:04 38.15385 -86.67429 25277 ft 472 kts 40°
2026-05-09 02:05 38.17728 -86.64473 25954 ft 478 kts 40°
2026-05-09 02:05 38.20107 -86.61482 26628 ft 484 kts 39°
2026-05-09 02:05 38.22521 -86.58450 27306 ft 491 kts 39°
2026-05-09 02:05 38.24958 -86.55375 27987 ft 497 kts 39°
2026-05-09 02:06 38.27427 -86.52253 28661 ft 503 kts 39°
2026-05-09 02:06 38.29927 -86.49096 29338 ft 510 kts 39°
2026-05-09 02:06 38.32460 -86.45897 30093 ft 517 kts 39°
2026-05-09 02:07 38.37600 -86.39380 31522 ft 529 kts 39°
2026-05-09 02:07 38.40217 -86.36057 32330 ft 534 kts 38°
2026-05-09 02:07 38.42858 -86.32706 33108 ft 538 kts 38°
2026-05-09 02:07 38.45518 -86.29326 33900 ft 542 kts 38°
2026-05-09 02:08 38.48194 -86.25917 34597 ft 545 kts 38°
2026-05-09 02:08 38.50873 -86.22498 35355 ft 545 kts 38°
2026-05-09 02:08 38.53558 -86.19073 36091 ft 547 kts 38°
2026-05-09 02:08 38.56252 -86.15635 36845 ft 547 kts 38°
2026-05-09 02:09 38.58907 -86.12239 37583 ft 548 kts 38°
2026-05-09 02:09 38.61598 -86.08791 38312 ft 549 kts 38°
2026-05-09 02:09 38.64294 -86.05337 38946 ft 548 kts 38°
2026-05-09 02:09 38.66404 -86.02630 39495 ft 546 kts 38°
2026-05-09 02:10 38.69072 -85.99201 40196 ft 542 kts 38°
2026-05-09 02:10 38.71724 -85.95790 40845 ft 541 kts 38°
2026-05-09 02:10 38.74417 -85.92340 40889 ft 556 kts 38°
2026-05-09 02:10 38.77194 -85.88775 40903 ft 573 kts 38°
2026-05-09 02:11 38.80000 -85.85145 40911 ft 588 kts 39°
2026-05-09 02:11 38.85787 -85.77642 40912 ft 592 kts 39°
2026-05-09 02:12 38.91592 -85.70136 40918 ft 593 kts 39°
2026-05-09 02:12 38.97403 -85.62581 40917 ft 597 kts 39°
2026-05-09 02:13 39.03251 -85.54971 40914 ft 598 kts 39°
2026-05-09 02:13 39.09041 -85.47407 40912 ft 596 kts 39°
2026-05-09 02:14 39.14851 -85.39810 40921 ft 595 kts 39°
2026-05-09 02:14 39.20642 -85.32209 40938 ft 595 kts 39°
2026-05-09 02:15 39.26438 -85.24590 40944 ft 595 kts 39°
2026-05-09 02:15 39.32159 -85.16876 40938 ft 598 kts 45°
2026-05-09 02:16 39.36672 -85.07853 40937 ft 608 kts 60°
2026-05-09 02:16 39.39853 -84.97676 40942 ft 612 kts 66°
2026-05-09 02:17 39.42948 -84.87411 40950 ft 613 kts 66°
2026-05-09 02:17 39.46009 -84.77132 40160 ft 608 kts 66°
2026-05-09 02:17 39.47530 -84.72047 39436 ft 605 kts 66°
2026-05-09 02:18 39.49041 -84.66983 38729 ft 602 kts 66°
2026-05-09 02:18 39.50504 -84.62042 38566 ft 592 kts 66°
2026-05-09 02:18 39.51990 -84.57032 38182 ft 603 kts 66°
2026-05-09 02:18 39.53497 -84.51959 37777 ft 603 kts 66°
2026-05-09 02:19 39.54986 -84.46905 37364 ft 598 kts 66°
2026-05-09 02:19 39.56467 -84.41873 36961 ft 597 kts 66°
2026-05-09 02:19 39.57461 -84.38500 36687 ft 598 kts 66°
2026-05-09 02:19 39.58947 -84.33458 36284 ft 599 kts 66°
2026-05-09 02:20 39.60424 -84.28417 35858 ft 598 kts 66°
2026-05-09 02:20 39.61895 -84.23387 35451 ft 597 kts 66°
2026-05-09 02:20 39.63346 -84.18420 35052 ft 596 kts 66°
2026-05-09 02:20 39.64818 -84.13386 34643 ft 596 kts 66°
2026-05-09 02:21 39.66299 -84.08370 34229 ft 594 kts 64°
2026-05-09 02:21 39.68134 -84.03618 33811 ft 588 kts 55°
2026-05-09 02:21 39.70394 -83.99221 33386 ft 580 kts 47°
2026-05-09 02:21 39.72993 -83.95301 32987 ft 569 kts 39°
2026-05-09 02:22 39.75894 -83.91845 32601 ft 562 kts 33°
2026-05-09 02:22 39.78870 -83.88571 32218 ft 556 kts 33°
2026-05-09 02:22 39.81739 -83.85365 31837 ft 547 kts 33°
2026-05-09 02:22 39.84619 -83.82167 31465 ft 543 kts 33°
2026-05-09 02:23 39.87492 -83.79002 31086 ft 539 kts 33°
2026-05-09 02:23 39.90342 -83.75839 30734 ft 536 kts 34°
2026-05-09 02:23 39.93157 -83.72690 30371 ft 532 kts 34°
2026-05-09 02:23 39.95961 -83.69565 30011 ft 528 kts 34°
2026-05-09 02:24 39.98740 -83.66476 29620 ft 524 kts 34°
2026-05-09 02:24 40.01500 -83.63397 29256 ft 521 kts 34°
2026-05-09 02:24 40.04246 -83.60322 28901 ft 519 kts 34°
2026-05-09 02:24 40.06935 -83.57312 28551 ft 516 kts 34°
2026-05-09 02:25 40.09654 -83.54270 28197 ft 512 kts 34°
2026-05-09 02:25 40.12339 -83.51257 27843 ft 504 kts 34°
2026-05-09 02:25 40.14963 -83.48301 27501 ft 492 kts 33°
2026-05-09 02:25 40.17550 -83.45401 27170 ft 489 kts 33°
2026-05-09 02:26 40.20056 -83.42390 26836 ft 490 kts 37°
2026-05-09 02:26 40.22507 -83.39299 26506 ft 489 kts 37°
2026-05-09 02:26 40.24957 -83.36230 26173 ft 487 kts 37°
2026-05-09 02:26 40.27405 -83.33194 25842 ft 480 kts 37°
2026-05-09 02:27 40.29790 -83.30212 25519 ft 470 kts 37°
2026-05-09 02:27 40.32101 -83.27310 25204 ft 464 kts 37°
2026-05-09 02:27 40.34428 -83.24401 24897 ft 462 kts 37°
2026-05-09 02:27 40.36749 -83.21497 24581 ft 461 kts 37°
2026-05-09 02:28 40.39060 -83.18593 24271 ft 459 kts 37°
2026-05-09 02:28 40.41360 -83.15700 23956 ft 457 kts 37°
2026-05-09 02:28 40.43649 -83.12822 23643 ft 454 kts 37°
2026-05-09 02:28 40.45908 -83.09975 23279 ft 446 kts 37°
2026-05-09 02:29 40.48122 -83.07182 22922 ft 437 kts 37°
2026-05-09 02:29 40.50256 -83.04495 22812 ft 427 kts 37°
2026-05-09 02:29 40.52413 -83.01812 22698 ft 428 kts 37°
2026-05-09 02:29 40.54582 -82.99116 22569 ft 429 kts 37°
2026-05-09 02:30 40.56734 -82.96402 22345 ft 429 kts 37°
2026-05-09 02:30 40.58902 -82.93677 21875 ft 431 kts 37°
2026-05-09 02:30 40.61065 -82.90962 21487 ft 426 kts 38°
2026-05-09 02:30 40.63192 -82.88286 21116 ft 422 kts 38°
2026-05-09 02:31 40.65310 -82.85625 20648 ft 420 kts 38°
2026-05-09 02:31 40.67413 -82.82975 20191 ft 417 kts 38°
2026-05-09 02:31 40.69470 -82.80381 19729 ft 413 kts 38°
2026-05-09 02:31 40.71533 -82.77776 19272 ft 408 kts 38°
2026-05-09 02:32 40.73567 -82.75207 18824 ft 403 kts 38°
2026-05-09 02:32 40.75572 -82.72671 18377 ft 395 kts 38°
2026-05-09 02:32 40.77536 -82.70185 17908 ft 388 kts 38°
2026-05-09 02:32 40.79474 -82.67735 17470 ft 384 kts 38°
2026-05-09 02:33 40.81396 -82.65300 17046 ft 383 kts 39°
2026-05-09 02:33 40.83307 -82.62875 16715 ft 379 kts 39°
2026-05-09 02:33 40.85182 -82.60494 16320 ft 379 kts 39°
2026-05-09 02:33 40.87084 -82.58083 15897 ft 379 kts 39°
2026-05-09 02:34 40.88978 -82.55670 15470 ft 378 kts 39°
2026-05-09 02:34 40.90867 -82.53266 15049 ft 376 kts 39°
2026-05-09 02:34 40.92744 -82.50875 14628 ft 373 kts 40°
2026-05-09 02:34 40.94607 -82.48501 14210 ft 370 kts 40°
2026-05-09 02:35 40.96454 -82.46147 13801 ft 367 kts 40°
2026-05-09 02:35 40.98284 -82.43814 13360 ft 364 kts 40°
2026-05-09 02:35 41.00071 -82.41530 12955 ft 361 kts 40°
2026-05-09 02:35 41.01872 -82.39230 12553 ft 359 kts 40°
2026-05-09 02:36 41.03663 -82.36940 12150 ft 357 kts 40°
2026-05-09 02:36 41.05442 -82.34663 11752 ft 355 kts 40°
2026-05-09 02:36 41.07196 -82.32374 11352 ft 353 kts 42°
2026-05-09 02:36 41.08913 -82.30068 10958 ft 350 kts 42°
2026-05-09 02:37 41.10611 -82.27812 10566 ft 341 kts 42°
2026-05-09 02:37 41.12276 -82.25628 10192 ft 333 kts 41°
2026-05-09 02:37 41.13863 -82.23530 9827 ft 315 kts 42°
2026-05-09 02:37 41.15407 -82.21485 9460 ft 312 kts 42°
2026-05-09 02:38 41.16921 -82.19482 9113 ft 311 kts 42°
2026-05-09 02:38 41.18448 -82.17459 8766 ft 310 kts 42°
2026-05-09 02:38 41.19969 -82.15438 8423 ft 309 kts 42°
2026-05-09 02:38 41.21486 -82.13426 8086 ft 306 kts 42°
2026-05-09 02:39 41.22977 -82.11443 8016 ft 301 kts 42°
2026-05-09 02:39 41.24436 -82.09503 8006 ft 292 kts 42°
2026-05-09 02:39 41.25860 -82.07604 8000 ft 288 kts 41°
2026-05-09 02:39 41.27265 -82.05734 8001 ft 281 kts 41°
2026-05-09 02:40 41.28617 -82.03932 8000 ft 277 kts 42°
2026-05-09 02:40 41.29974 -82.02122 7999 ft 275 kts 41°
2026-05-09 02:40 41.31318 -82.00328 8004 ft 273 kts 41°
2026-05-09 02:40 41.32660 -81.98538 7993 ft 273 kts 41°
2026-05-09 02:41 41.33997 -81.96750 7993 ft 272 kts 41°
2026-05-09 02:41 41.35330 -81.94966 7993 ft 269 kts 41°
2026-05-09 02:41 41.36623 -81.93233 7989 ft 261 kts 41°
2026-05-09 02:41 41.37900 -81.91526 7987 ft 259 kts 41°
2026-05-09 02:42 41.39170 -81.89826 7990 ft 259 kts 41°
2026-05-09 02:42 41.40441 -81.88121 7990 ft 259 kts 41°
2026-05-09 02:42 41.41713 -81.86418 7992 ft 259 kts 41°
2026-05-09 02:42 41.42983 -81.84712 7993 ft 259 kts 41°
2026-05-09 02:43 41.44236 -81.83028 7991 ft 259 kts 41°
2026-05-09 02:43 41.45508 -81.81320 7993 ft 260 kts 42°
2026-05-09 02:43 41.46780 -81.79610 7993 ft 260 kts 41°
2026-05-09 02:43 41.48051 -81.77901 8004 ft 259 kts 42°
2026-05-09 02:44 41.49326 -81.76185 7924 ft 263 kts 42°
2026-05-09 02:44 41.50618 -81.74446 7580 ft 265 kts 42°
2026-05-09 02:44 41.51907 -81.72706 7233 ft 263 kts 42°
2026-05-09 02:44 41.53190 -81.70976 6867 ft 262 kts 41°
2026-05-09 02:45 41.54471 -81.69248 6502 ft 262 kts 42°
2026-05-09 02:45 41.55732 -81.67545 6137 ft 262 kts 41°
2026-05-09 02:45 41.57010 -81.65819 5749 ft 261 kts 41°
2026-05-09 02:45 41.58286 -81.64093 5365 ft 261 kts 41°
2026-05-09 02:46 41.59558 -81.62374 5016 ft 259 kts 41°
2026-05-09 02:46 41.60782 -81.60711 4883 ft 248 kts 41°
2026-05-09 02:46 41.62000 -81.59068 4506 ft 247 kts 41°
2026-05-09 02:46 41.63182 -81.57462 4124 ft 238 kts 41°
2026-05-09 02:47 41.64325 -81.55908 3758 ft 231 kts 41°
2026-05-09 02:47 41.65435 -81.54403 3423 ft 223 kts 42°
2026-05-09 02:47 41.66322 -81.52773 3038 ft 221 kts 68°
2026-05-09 02:47 41.66627 -81.50792 2776 ft 216 kts 83°
2026-05-09 02:48 41.66901 -81.48817 2529 ft 214 kts 81°
2026-05-09 02:48 41.67183 -81.46917 2507 ft 205 kts 81°
2026-05-09 02:48 41.67448 -81.45054 2507 ft 204 kts 82°
2026-05-09 02:48 41.67719 -81.43178 2497 ft 206 kts 81°
2026-05-09 02:49 41.68000 -81.41294 2506 ft 207 kts 82°
2026-05-09 02:49 41.68274 -81.39419 2504 ft 204 kts 81°
2026-05-09 02:49 41.68534 -81.37590 2504 ft 202 kts 82°
2026-05-09 02:49 41.68791 -81.35754 2498 ft 200 kts 85°
2026-05-09 02:50 41.68520 -81.34028 2483 ft 185 kts 131°
2026-05-09 02:50 41.67546 -81.33109 2490 ft 166 kts 175°
2026-05-09 02:50 41.66494 -81.33371 2496 ft 152 kts 219°
2026-05-09 02:50 41.66006 -81.34548 2492 ft 150 kts 262°
2026-05-09 02:51 41.66074 -81.35946 2515 ft 150 kts 266°
2026-05-09 02:51 41.65891 -81.37314 2515 ft 150 kts 253°
2026-05-09 02:51 41.65618 -81.38663 2501 ft 151 kts 246°
2026-05-09 02:51 41.65112 -81.39875 2506 ft 149 kts 242°
2026-05-09 02:52 41.64601 -81.41094 2505 ft 150 kts 240°
2026-05-09 02:52 41.64060 -81.42270 2504 ft 151 kts 238°
2026-05-09 02:52 41.63499 -81.43451 2508 ft 149 kts 239°
2026-05-09 02:52 41.62955 -81.44631 2507 ft 149 kts 239°
2026-05-09 02:53 41.62394 -81.45805 2498 ft 150 kts 239°
2026-05-09 02:53 41.61846 -81.47002 2499 ft 152 kts 238°
2026-05-09 02:53 41.61269 -81.48197 2502 ft 153 kts 239°
2026-05-09 02:53 41.60719 -81.49414 2501 ft 152 kts 239°
2026-05-09 02:54 41.60155 -81.50577 2496 ft 151 kts 239°
2026-05-09 02:54 41.59612 -81.51772 2497 ft 150 kts 240°
2026-05-09 02:54 41.59042 -81.52947 2496 ft 151 kts 239°
2026-05-09 02:54 41.58491 -81.54156 2501 ft 154 kts 240°
2026-05-09 02:55 41.57910 -81.55359 2496 ft 154 kts 239°
2026-05-09 02:55 41.57369 -81.56548 2499 ft 142 kts 241°
2026-05-09 02:55 41.56844 -81.57638 2329 ft 138 kts 238°
2026-05-09 02:55 41.56322 -81.58708 2184 ft 138 kts 238°
2026-05-09 02:56 41.55811 -81.59782 1995 ft 135 kts 239°
2026-05-09 02:56 41.55331 -81.60834 1797 ft 131 kts 239°
2026-05-09 02:56 41.54858 -81.61860 1626 ft 130 kts 237°
2026-05-09 02:56 41.54544 -81.62542 1494 ft 130 kts 237°
2026-05-09 02:57 41.53898 -81.63905 1258 ft 133 kts 235°
2026-05-09 02:57 41.53409 -81.64951 1080 ft 132 kts 235°
2026-05-09 02:57 41.52934 -81.65973 878 ft 130 kts 236°
2026-05-09 02:57 41.52452 -81.66997 675 ft 128 kts 237°
2026-05-09 02:58 41.52018 -81.67924 587 ft 99 kts 237°
2026-05-09 02:58 41.51784 -81.68422 587 ft 43 kts 238°
2026-05-09 02:58 41.51682 -81.68605 586 ft 36 kts 225°
2026-05-09 02:58 41.51546 -81.68725 587 ft 20 kts 208°
2026-05-09 02:59 41.51420 -81.68765 587 ft 8 kts 152°
2026-05-09 02:59 41.51377 -81.68793 587 ft 8 kts 235°
2026-05-09 02:59 41.51336 -81.68830 587 ft 8 kts 155°
2026-05-09 02:59 41.51287 -81.68789 587 ft 6 kts 149°
2026-05-09 03:00 41.51268 -81.68776 587 ft 3 kts 167°
2026-05-09 03:00 41.51256 -81.68797 585 ft 4 kts 239°
2026-05-09 03:00 41.51255 -81.68799 585 ft 0 kts 239°